Terminal Aerodrome Forecast
Issued by NWS Knoxville/Tri Cities, TN

Home | Current Version | Previous Version | Text Only | Print | Product List | Glossary On
Versions: 1 2 3 4 5 6 7 8 9 10 11 12 13 14 15 16 17 18 19 20 21 22 23 24
000
FTUS44 KMRX 240525
TAFTRI
TAF
KTRI 240525Z 2406/2506 16005KT P6SM VCSH OVC060
     FM240900 19008KT P6SM BKN050
     FM241500 22020G30KT P6SM BKN040
     FM250000 24012KT P6SM SCT040=

USA.gov is the U.S. government's official web portal to all federal, state and local government web resources and services.